Location: Hartford
(41.7640°N, 72.6860°W)
Time: 03:05:24
(UTC-04:00)

Amateur Radio Satellites - All Passes

Search period start: 19 April 2014 02:35
Search period end: 20 April 2014 02:35
Location: Hartford, 41.7640°N, 72.6860°W

Satellite Date Start Highest point End Downlink Frequencies (MHz)
Time Altitude Azimuth
AO-27 19 Apr 02:38:00 02:42:59 45° 99° (E) 02:47:55 436.795 MHz FM
Sapphire 19 Apr 02:38:33 02:42:40 22° 315° (NW) 02:46:49 437.095 MHz 1200 baud AX-25 AFSK
ITAMSAT 1 19 Apr 02:48:48 02:53:54 56° 101° (E) 02:58:58 435.822 SSB
Oscar 19 19 Apr 02:55:05 03:00:16 68° 287° (WNW) 03:05:25 437.125 CW, 437.150 USB
AO-Echo 19 Apr 03:02:20 03:07:05 61° 101° (E) 03:11:44 ?
Oscar 16 19 Apr 03:03:21 03:08:24 53° 289° (WNW) 03:13:27 437.025 USB, Beacon 2401.1428
OPAL 19 Apr 03:15:22 03:20:04 40° 260° (W) 03:24:52 ?
TMSAT-1 19 Apr 03:15:53 03:20:04 23° 93° (E) 03:24:14 436.925 FM
UOSAT-12 19 Apr 03:22:51 03:27:22 46° 243° (WSW) 03:31:50 437.025 FM, 437.400 FM
PCSat 19 Apr 03:27:08 03:28:33 11° 326° (NW) 03:29:59 145.825 MHz
AO-40 19 Apr 03:31:22 08:41:20 35° 182° (S) 13:57:47 Beacon 2401.320
Uribyol 2 19 Apr 03:37:31 03:42:30 49° 289° (WNW) 03:47:29 436.500 FM
AO-7 19 Apr 03:59:50 04:05:29 20° 91° (E) 04:11:05 29.400 - 29.500 MHz
KITSAT 1 19 Apr 04:03:14 04:11:14 61° 306° (NW) 04:19:18 435.175 FM
Gurwin Techsat 1B 19 Apr 04:06:20 04:11:40 87° 285° (WNW) 04:16:59 435.225 FM
AO-27 19 Apr 04:18:11 04:22:12 23° 296° (WNW) 04:26:13 436.795 MHz FM
ITAMSAT 1 19 Apr 04:29:22 04:32:58 19° 298° (WNW) 04:36:33 435.822 SSB
JAS-1B 19 Apr 04:34:06 04:39:39 53° 101° (E) 04:45:24 435.800 - 435.900 CW/SSB
AO-Echo 19 Apr 04:42:35 04:45:20 15° 299° (WNW) 04:48:04 ?
TMSAT-1 19 Apr 04:55:10 05:00:11 45° 290° (WNW) 05:05:10 436.925 FM
Uosat F 19 Apr 04:58:39 05:03:40 78° 103° (ESE) 05:08:40 435.120 FM
Gurwin Techsat 1B 19 Apr 05:48:44 05:50:50 12° 302° (WNW) 05:52:56 435.225 FM
AO-7 19 Apr 05:50:50 05:59:11 86° 289° (WNW) 06:07:32 29.400 - 29.500 MHz
STRAND 1 19 Apr 05:52:47 05:57:16 32° 67° (ENE) 06:01:45 ?
KITSAT 1 19 Apr 06:02:58 06:08:30 19° 331° (NNW) 06:14:03 435.175 FM
RS-15 19 Apr 06:09:49 06:19:55 39° 108° (ESE) 06:29:43 29.354 - 29.394 USB, Beacon 29.352 USB
JAS-1B 19 Apr 06:25:54 06:29:59 21° 299° (WNW) 06:34:06 435.800 - 435.900 CW/SSB
Hamsat 19 Apr 06:28:01 06:31:48 28° 95° (E) 06:35:35 145.90 MHz
MaSat-1 19 Apr 06:33:28 06:35:50 22° 60° (ENE) 06:38:30 437.345 MHz
Uosat F 19 Apr 06:39:21 06:41:49 14° 301° (WNW) 06:44:17 435.120 FM
JAS-2 19 Apr 06:44:13 06:47:27 16° 92° (E) 06:50:49 435.800 - 435.900 CW/SSB, 435.910 FM
STRAND 1 19 Apr 07:31:53 07:36:24 31° 264° (W) 07:40:57 ?
AO-7 19 Apr 07:45:08 07:50:51 21° 309° (NW) 07:56:36 29.400 - 29.500 MHz
Sapphire 19 Apr 08:00:00 08:01:51 12° 35° (NE) 08:03:42 437.095 MHz 1200 baud AX-25 AFSK
Hamsat 19 Apr 08:04:05 08:07:42 26° 291° (WNW) 08:11:19 145.90 MHz
KITSAT 1 19 Apr 08:05:31 08:07:57 11° 2° (N) 08:10:23 435.175 FM
SO-67 19 Apr 08:09:46 08:13:17 81° 102° (ESE) 08:16:47 435.3500 MHz FM
MaSat-1 19 Apr 08:12:00 08:14:10 17° 249° (WSW) 08:16:34 437.345 MHz
RS-15 19 Apr 08:20:35 08:31:45 63° 310° (NW) 08:42:38 29.354 - 29.394 USB, Beacon 29.352 USB
JAS-2 19 Apr 08:27:37 08:32:56 67° 287° (WNW) 08:38:46 435.800 - 435.900 CW/SSB, 435.910 FM
PCSat 19 Apr 08:43:24 08:47:41 23° 46° (NE) 08:51:56 145.825 MHz
HO-68 19 Apr 08:50:38 08:55:45 21° 92° (E) 09:00:50 435.675 MHz FM
Oscar 11 19 Apr 09:39:03 09:41:44 16° 92° (E) 09:44:25 145.825 FM, Beacon 2401.500 USB
Sapphire 19 Apr 09:41:11 09:46:32 56° 56° (ENE) 09:51:50 437.095 MHz 1200 baud AX-25 AFSK
KITSAT 1 19 Apr 10:01:17 10:07:14 21° 32° (NNE) 10:13:08 435.175 FM
PANSAT 19 Apr 10:20:13 10:21:26 11° 177° (S) 10:22:39 not established
PCSat 19 Apr 10:26:10 10:31:31 61° 245° (WSW) 10:36:50 145.825 MHz
HO-68 19 Apr 10:36:55 10:44:05 75° 289° (WNW) 10:51:14 435.675 MHz FM
RS-15 19 Apr 10:38:13 10:46:53 25° 339° (NNW) 10:55:30 29.354 - 29.394 USB, Beacon 29.352 USB
Saudisat 1A 19 Apr 10:55:13 10:59:24 41° 117° (ESE) 11:03:36 436.775 MHz
FUNcube-1 19 Apr 11:03:12 11:07:15 41° 99° (E) 11:11:21 145.950 - 145.970 MHz USB
Oscar 11 19 Apr 11:14:00 11:18:10 46° 288° (WNW) 11:22:20 145.825 FM, Beacon 2401.500 USB
Sapphire 19 Apr 11:25:33 11:29:31 21° 254° (WSW) 11:33:28 437.095 MHz 1200 baud AX-25 AFSK
KITSAT 1 19 Apr 11:56:06 12:04:13 71° 56° (NE) 12:12:15 435.175 FM
HO-68 19 Apr 12:26:45 12:30:36 16° 309° (NW) 12:34:28 435.675 MHz FM
ITAMSAT 1 19 Apr 12:31:42 12:33:36 12° 58° (ENE) 12:35:29 435.822 SSB
Oscar 19 19 Apr 12:34:27 12:38:25 23° 64° (ENE) 12:42:25 437.125 CW, 437.150 USB
Saudisat 1A 19 Apr 12:35:25 12:39:08 25° 315° (NW) 12:42:52 436.775 MHz
FUNcube-1 19 Apr 12:40:30 12:43:23 18° 294° (WNW) 12:46:18 145.950 - 145.970 MHz USB
AO-Echo 19 Apr 12:40:43 12:42:16 11° 59° (ENE) 12:43:48 ?
Oscar 16 19 Apr 12:42:14 12:46:35 29° 66° (ENE) 12:50:58 437.025 USB, Beacon 2401.1428
RS-15 19 Apr 12:56:12 13:04:27 23° 16° (NNE) 13:12:43 29.354 - 29.394 USB, Beacon 29.352 USB
Uribyol 2 19 Apr 13:17:00 13:21:32 32° 67° (ENE) 13:26:04 436.500 FM
Gurwin Techsat 1B 19 Apr 13:49:47 13:53:35 21° 63° (ENE) 13:57:24 435.225 FM
KITSAT 1 19 Apr 13:52:32 13:58:53 26° 255° (WSW) 14:05:13 435.175 FM
AO-27 19 Apr 13:56:23 14:01:33 71° 74° (ENE) 14:06:44 436.795 MHz FM
ITAMSAT 1 19 Apr 14:07:06 14:12:18 87° 75° (ENE) 14:17:30 435.822 SSB
Oscar 19 19 Apr 14:12:33 14:17:28 45° 261° (W) 14:22:26 437.125 CW, 437.150 USB
AO-Echo 19 Apr 14:14:59 14:20:15 83° 75° (ENE) 14:25:24 ?
ISS 19 Apr 14:15:31 14:16:10 10° 129° (SE) 14:16:49 145.800 FM
Oscar 16 19 Apr 14:21:08 14:25:48 35° 263° (W) 14:30:32 437.025 USB, Beacon 2401.1428
Uosat F 19 Apr 14:36:27 14:39:03 14° 60° (ENE) 14:41:40 435.120 FM
TMSAT-1 19 Apr 14:36:47 14:41:36 37° 68° (ENE) 14:46:27 436.925 FM
Uribyol 2 19 Apr 14:56:24 15:00:58 32° 264° (W) 15:05:33 436.500 FM
AO-7 19 Apr 14:59:06 15:05:59 31° 56° (ENE) 15:12:52 29.400 - 29.500 MHz
RS-15 19 Apr 15:09:25 15:20:06 54° 47° (NE) 15:30:57 29.354 - 29.394 USB, Beacon 29.352 USB
SO-50 19 Apr 15:11:36 15:15:36 33° 115° (ESE) 15:19:39 436.795 FM
JAS-1B 19 Apr 15:18:12 15:25:59 54° 70° (ENE) 15:32:32 435.800 - 435.900 CW/SSB
OPAL 19 Apr 15:24:31 15:29:36 51° 102° (ESE) 15:34:40 ?
Gurwin Techsat 1B 19 Apr 15:27:56 15:33:08 55° 260° (W) 15:38:22 435.225 FM
AO-27 19 Apr 15:38:57 15:41:35 14° 270° (W) 15:44:13 436.795 MHz FM
ISS 19 Apr 15:49:04 15:52:24 89° 156° (SSE) 15:55:46 145.800 FM
ITAMSAT 1 19 Apr 15:51:09 15:52:27 11° 272° (W) 15:53:45 435.822 SSB
AO-Echo 19 Apr 15:57:40 15:59:34 12° 271° (W) 16:01:28 ?
Uosat F 19 Apr 16:12:11 16:17:13 75° 257° (WSW) 16:22:15 435.120 FM
TMSAT-1 19 Apr 16:17:06 16:21:35 28° 265° (W) 16:26:06 436.925 FM
AO-7 19 Apr 16:50:00 16:58:12 66° 256° (WSW) 17:06:27 29.400 - 29.500 MHz
SO-50 19 Apr 16:52:14 16:56:10 30° 313° (NW) 17:00:10 436.795 FM
OPAL 19 Apr 17:04:11 17:08:07 22° 299° (WNW) 17:12:04 ?
JAS-1B 19 Apr 17:09:47 17:16:43 30° 264° (W) 17:22:45 435.800 - 435.900 CW/SSB
RS-15 19 Apr 17:22:05 17:32:20 48° 249° (WSW) 17:42:52 29.354 - 29.394 USB, Beacon 29.352 USB
Hamsat 19 Apr 17:22:25 17:25:36 21° 67° (ENE) 17:28:50 145.90 MHz
ISS 19 Apr 17:26:51 17:29:31 21° 343° (NNW) 17:32:11 145.800 FM
UOSAT-12 19 Apr 17:34:04 17:38:27 50° 118° (ESE) 17:42:57 437.025 FM, 437.400 FM
JAS-2 19 Apr 18:40:20 18:45:57 51° 72° (ENE) 18:51:07 435.800 - 435.900 CW/SSB, 435.910 FM
SO-67 19 Apr 18:44:06 18:47:05 27° 71° (ENE) 18:50:05 435.3500 MHz FM
AO-7 19 Apr 18:50:42 18:52:30 11° 274° (W) 18:54:19 29.400 - 29.500 MHz
Hamsat 19 Apr 18:57:37 19:01:24 33° 264° (W) 19:05:15 145.90 MHz
ISS 19 Apr 19:05:06 19:07:11 15° 3° (N) 19:09:16 145.800 FM
UOSAT-12 19 Apr 19:15:13 19:18:53 23° 317° (NW) 19:22:36 437.025 FM, 437.400 FM
HO-68 19 Apr 19:21:07 19:25:32 18° 53° (NE) 19:29:59 435.675 MHz FM
Saudisat 1A 19 Apr 19:21:47 19:25:54 37° 49° (NE) 19:29:57 436.775 MHz
STRAND 1 19 Apr 19:41:27 19:46:34 86° 104° (ESE) 19:51:40 ?
SO-67 19 Apr 20:17:56 20:20:16 17° 267° (W) 20:22:37 435.3500 MHz FM
JAS-2 19 Apr 20:27:02 20:31:18 21° 266° (W) 20:35:19 435.800 - 435.900 CW/SSB, 435.910 FM
Oscar 11 19 Apr 20:35:22 20:37:36 14° 63° (ENE) 20:39:51 145.825 FM, Beacon 2401.500 USB
ISS 19 Apr 20:41:44 20:44:44 29° 23° (NNE) 20:47:44 145.800 FM
Saudisat 1A 19 Apr 21:01:44 21:05:19 25° 247° (WSW) 21:08:52 436.775 MHz
HO-68 19 Apr 21:05:05 21:12:14 85° 72° (ENE) 21:19:25 435.675 MHz FM
STRAND 1 19 Apr 21:22:50 21:25:02 13° 301° (WNW) 21:27:14 ?
FUNcube-1 19 Apr 22:00:25 22:04:13 34° 71° (ENE) 22:08:00 145.950 - 145.970 MHz USB
Oscar 11 19 Apr 22:09:05 22:13:19 57° 260° (W) 22:17:35 145.825 FM, Beacon 2401.500 USB
MaSat-1 19 Apr 22:15:29 22:18:02 29° 299° (WNW) 22:20:22 437.345 MHz
ISS 19 Apr 22:18:21 22:21:35 44° 221° (SW) 22:24:47 145.800 FM
HO-68 19 Apr 22:56:23 23:00:45 17° 270° (W) 23:05:08 435.675 MHz FM
PCSat 19 Apr 23:27:11 23:30:27 16° 104° (ESE) 23:33:44 145.825 MHz
FUNcube-1 19 Apr 23:37:41 23:40:45 20° 266° (W) 23:43:48 145.950 - 145.970 MHz USB
SO-50 19 Apr 23:42:36 23:46:53 35° 49° (NE) 23:51:12 436.795 FM
Sapphire 20 Apr 00:23:16 00:28:25 48° 113° (ESE) 00:33:37 437.095 MHz 1200 baud AX-25 AFSK
UOSAT-12 20 Apr 00:26:24 00:26:37 10° 31° (NNE) 00:26:49 437.025 FM, 437.400 FM
OPAL 20 Apr 01:04:30 01:06:43 13° 56° (NE) 01:08:56 ?
PCSat 20 Apr 01:07:52 01:13:15 69° 301° (WNW) 01:18:41 145.825 MHz
SO-50 20 Apr 01:23:20 01:27:21 29° 246° (WSW) 01:31:25 436.795 FM
Uribyol 2 20 Apr 01:32:30 01:33:05 10° 88° (E) 01:33:40 436.500 FM
UOSAT-12 20 Apr 02:03:21 02:07:56 48° 52° (NE) 02:12:28 437.025 FM, 437.400 FM
Sapphire 20 Apr 02:07:29 02:12:04 27° 312° (NW) 02:16:41 437.095 MHz 1200 baud AX-25 AFSK
AO-27 20 Apr 02:09:50 02:14:03 25° 94° (E) 02:18:14 436.795 MHz FM
ITAMSAT 1 20 Apr 02:20:11 02:24:43 30° 96° (E) 02:29:14 435.822 SSB
AO-Echo 20 Apr 02:22:58 02:26:50 24° 94° (E) 02:30:39 ?
Oscar 19 20 Apr 02:23:35 02:28:46 63° 101° (ESE) 02:33:54 437.125 CW, 437.150 USB
